The Legends Meet 2015 vs The Legends Meet 2014

Aggregate Data Points
Difference This Meet That Meet
Overall Athletes +12 869 857
Overall Average -34.86 21:18.79 21:53.65
1st-10th Place -23.07 15:55.20 16:18.27
1st-25th Place -25.87 16:09.77 16:35.64
1st-50th Place -24.78 16:29.91 16:54.69
1st-100th Place -24.82 16:52.89 17:17.71
Common Athletes -- -- 359
Ran Faster 249 304 55
Ran Season Best 127 208 81
Average Time -56.36 20:41.20 21:37.57
Median Time -1:13.70 20:03.90 21:17.60
Middle 80% Times -55.67 20:28.19 21:23.87
Top 10% Times -46.26 16:27.86 17:14.11
Top 25% Times -51.26 17:09.72 18:00.98
Top 50% Times -58.79 18:06.78 19:05.57
Bottom 50% Times -53.62 23:08.73 24:02.35
Bottom 25% Times -51.27 25:04.08 25:55.35
Bottom 10% Times -1:12.56 26:45.71 27:58.27
Average Difference -56.36 -- --
Median Difference -2:28.10 -- --
Middle 80% Difference -53.76 -- --
Top 10% Difference -42.18 -- --
Top 50% Difference -52.89 -- --
Top 25% Difference -46.78 -- --
Top 50% Difference -52.89 -- --
Bottom 50% Difference -1:00.34 -- --
Bottom 25% Difference -54.08 -- --
Bottom 10% Difference -1:24.85 -- --

Performances of Common Athletes
Athlete Team Difference This Meet That Meet
Tristan Dahmen Maplewood -38.50 15:24.80 16:03.30
Andre Bollam-Godbott Brunswick -1:13.50 15:35.50 16:49.00
Allen Sparks Maplewood -37.40 15:49.00 16:26.40
Oscar Rodriguez St. Edward -46.30 15:53.50 16:39.80
Clark Bookman Field -48.70 15:55.50 16:44.20
Chase Kern Canfield -36.10 16:04.70 16:40.80
Justin Moore Shaker Hts. -1:10.60 16:05.50 17:16.10
Matt Rozic Austintown-Fitch -1:03.20 16:06.00 17:09.20
Ian Harris Mount Lebanon -52.30 16:14.30 17:06.60
Todd Gunzenhauser Mount Lebanon -3.20 16:14.40 16:17.60
Tommy Carballada Chardon NDCL -35.90 16:15.20 16:51.10
Joshua Kalapos Mount Lebanon -56.90 16:16.40 17:13.30
Jacob Ondash Crestwood -52.10 16:17.70 17:09.80
Jake Hall Maplewood -40.10 16:18.00 16:58.10
Craig Schumacher Austintown-Fitch -39.00 16:18.40 16:57.40
Bryce Brandenstein Mount Lebanon -1:00.80 16:20.20 17:21.00
Nate Keeney Maplewood -1:01.50 16:22.70 17:24.20
James Williams Ak. Springfield -1:02.60 16:25.90 17:28.50
Tim Bizon Brunswick -43.40 16:27.10 17:10.50
Owen Reeher Badger -35.00 16:27.10 17:02.10
Andrew Green Austintown-Fitch -39.40 16:34.00 17:13.40
Ethan Sparks Maplewood -1:25.00 16:35.90 18:00.90
Brian Heller Akron SVSM -24.40 16:41.50 17:05.90
Derek Basinger Girard -48.40 16:42.90 17:31.30
Mike Shipman Maplewood -1:03.60 16:49.90 17:53.50
Marco Mediati McDonald -59.30 16:50.10 17:49.40
Jimmy Papotto St. Edward -21.60 16:50.60 17:12.20
C.j. Seitz McDonald -44.10 16:51.50 17:35.60
Ben Mosher Trinity -1:35.70 16:51.60 18:27.30
Zack Temple Newbury -2:08.20 16:52.10 19:00.30
Nick Cowger Maplewood -40.20 16:55.30 17:35.50
Zachary Dewit Mount Lebanon -52.90 17:01.30 17:54.20
Micah Jones Girard -1:04.50 17:01.60 18:06.10
Anthony Linert Austintown-Fitch -32.50 17:02.80 17:35.30
Luke Jefferson Trinity -47.50 17:03.70 17:51.20
Rob Doncourt Mount Lebanon -47.60 17:06.20 17:53.80
Sam Michael Firestone -40.00 17:07.50 17:47.50
Brandon Park Jefferson Area -2:59.60 17:08.50 20:08.10
Brett Lowden Field -1:42.20 17:10.00 18:52.20
Ian Pierson South Range -39.40 17:10.90 17:50.30
Jacob Butze St. Edward -1:35.50 17:12.80 18:48.30
Patrick Walter Akron SVSM -12.90 17:13.60 17:26.50
Zachary Asher Gilmour Academy -1:13.10 17:14.70 18:27.80
Ryan Dippolito Austintown-Fitch -23.00 17:15.60 17:38.60
Kyle Flowers Lakeside -51.10 17:15.90 18:07.00
Andrew Johnson Field -46.30 17:16.10 18:02.40
Cody Reeher Badger -44.90 17:17.40 18:02.30
Conner Mcintyer Akron SVSM -45.90 17:17.70 18:03.60
Sean O'brien Akron SVSM -2:56.40 17:17.90 20:14.30
Palmer Cameron Mineral Ridge -1:20.70 17:19.50 18:40.20
Cory Bouchek Gilmour Academy -1:09.10 17:19.90 18:29.00
Benjamin Targrove Canfield -1:03.80 17:23.30 18:27.10
Ben Giulivo Trinity -1:16.30 17:24.30 18:40.60
Darcy Isaiah Firestone -1:11.60 17:25.90 18:37.50
John Gudz Trinity -38.40 17:26.20 18:04.60
Nick Downing Gar. Garfield -24.30 17:26.30 17:50.60
Seth Byler Berkshire -1:02.90 17:29.50 18:32.40
Travis Brandt Jefferson Area -1:58.50 17:29.70 19:28.20
Nate Sahr CVCA -54.10 17:31.70 18:25.80
David Herr Firestone -52.30 17:34.30 18:26.60
Jack Schaeffer Padua Franciscan -1:22.40 17:34.60 18:57.00
Tyler Kraft Brunswick -1:00.10 17:34.70 18:34.80
Jonathan Michaels Ak. Springfield -36.80 17:36.20 18:13.00
Jacob Turk Berkshire -1:45.40 17:36.70 19:22.10
John Bowen Firestone -34.50 17:38.10 18:12.60
Chad Whetro Lakeside -19.70 17:39.60 17:59.30
Alex Jackson Solon -1:31.80 17:40.80 19:12.60
Quinn Baker St. Edward -0.90 17:41.40 17:42.30
Tristan Phillips Ak. Springfield -50.10 17:43.20 18:33.30
Justis Rose Field -1:10.60 17:43.50 18:54.10
Ben Stebelton South Range -37.50 17:44.50 18:22.00
Gabriel Tobon St. Edward -28.90 17:47.60 18:16.50
Lane Beatty River View -1:11.80 17:51.20 19:03.00
Chase Patrick CVCA -1:25.80 17:51.80 19:17.60
Ken Begley Maplewood -53.80 17:53.90 18:47.70
Richard Price Jefferson Area -1:09.50 17:55.00 19:04.50
Noah Lavictoire Firestone -1:09.50 17:56.10 19:05.60
Ryan Duffett Shaker Hts. -2:20.80 17:57.10 20:17.90
Garrett Satow Firestone -1:10.00 17:58.80 19:08.80
Seth Zarlinga United -6.60 18:00.90 18:07.50
Kalee Soehnlen St. Thomas Aquinas -1:27.60 18:01.00 19:28.60
Bailey Deevers Streetsboro -1:44.30 18:01.50 19:45.80
Tyler Brown Girard -4:22.40 18:02.00 22:24.40
Karl Rigo Harvey -51.00 18:03.60 18:54.60
Rebecca Craddock Brunswick -1:03.20 18:04.00 19:07.20
Alex Forristal Crestwood -2:54.30 18:04.00 20:58.30
Hannah Markel Gilmour Academy -1:28.20 18:04.70 19:32.90
Kevin Cummings Kirtland -52.40 18:04.80 18:57.20
Athena Welsh St. Thomas Aquinas -35.00 18:05.00 18:40.00
Josh Ogorzaly Brunswick -46.40 18:06.80 18:53.20
Austin Zimmers Solon -19.70 18:07.30 18:27.00
Paul Bogdan Jefferson Area -36.90 18:08.50 18:45.40
Samuel Cain Chalker -2:15.70 18:08.80 20:24.50
Jonathon Burnett Pymatuning Valley -1:24.80 18:09.90 19:34.70
Giorgio Miceli CVCA -1:17.50 18:11.00 19:28.50
Louiza Wise Solon -48.10 18:11.80 18:59.90
Zack Fedyski McDonald -25.30 18:12.90 18:38.20
Andrew Wilmot Ak. Springfield -15.10 18:13.70 18:28.80
Grant Dalton Lakeside +0.60 18:18.10 18:17.50
Ryan Hertz Chardon NDCL -3.80 18:21.10 18:24.90
Rachel Iacofano Akron SVSM -23.20 18:21.60 18:44.80
Bill Clark Maplewood -12.60 18:22.80 18:35.40
Jayson Breier Chardon NDCL -1:01.70 18:23.00 19:24.70
Andy Klemm Padua Franciscan -5:04.30 18:24.00 23:28.30
Matthew Cardello Padua Franciscan -1:35.50 18:24.20 19:59.70
Danny Kieta CVCA -1:09.40 18:26.60 19:36.00
Kevin Giulivo Padua Franciscan -46.20 18:28.60 19:14.80
Malina Mitchell McDonald -1:17.90 18:29.20 19:47.10
Jordan Chipps Girard -1:11.30 18:29.40 19:40.70
Austin Simmons Jefferson Area -1:17.80 18:29.50 19:47.30
Carter Wisser East Palestine -42.50 18:30.00 19:12.50
Ethan Senor Pymatuning Valley -2:13.70 18:30.60 20:44.30
Brian Patrick South Range -1:09.40 18:31.50 19:40.90
Jared Freeman Pymatuning Valley -1.60 18:32.80 18:34.40
Jordan Gregory South Range -1:12.80 18:33.10 19:45.90
Zachary Kemmer South Range -2:03.10 18:33.30 20:36.40
Ben Takitch Trinity -1:12.00 18:35.40 19:47.40
Joe Sammon Shaker Hts. -50.50 18:35.50 19:26.00
Garret Child Shaker Hts. -1:08.70 18:38.00 19:46.70
Kaleb Mitchell Girard -56.70 18:38.40 19:35.10
Mimi Reimers Shaker Hts. -1:22.60 18:38.80 20:01.40
Colton Zanko Kirtland -47.10 18:39.70 19:26.80
Nick Casey Lakeside -46.60 18:45.40 19:32.00
Andrew Schmitt Akron SVSM -4:44.30 18:45.40 23:29.70
Joshua Toth Mineral Ridge +9.50 18:55.20 18:45.70
Braden Rupe McDonald -2:21.50 18:45.90 21:07.40
Ryan Conroy Field +35.20 19:22.30 18:47.10
Alex Ventura Maplewood -33.20 18:48.20 19:21.40
Sophie Carrier Shaker Hts. -1:51.70 18:48.30 20:40.00
James Molnar East Palestine -2:28.10 18:49.50 21:17.60
Alex Clark Maplewood -1:04.10 18:50.50 19:54.60
Ryan Baxter CVCA -1:29.00 18:50.60 20:19.60
Jeff Warner Ak. Springfield -3.50 18:51.60 18:55.10
Heidi Hoffman McDonald -37.00 18:53.40 19:30.40
Josh Voitushenko Newbury -2:55.50 18:54.10 21:49.60
Scott Stanley Gar. Garfield -1:24.20 18:55.30 20:19.50
Jake Suttell Streetsboro +17.00 19:14.50 18:57.50
Liam Eitman Akron SVSM +23.00 19:21.20 18:58.20
Vanessa Pasadyn Brunswick -52.50 18:59.70 19:52.20
Joey Reed Ak. Springfield -32.50 19:04.40 19:36.90
Andrew Ketterer Padua Franciscan -1:41.40 19:04.80 20:46.20
Luke Staudecher McDonald -2:10.30 19:08.30 21:18.60
Sam Moody Field +52.60 20:02.00 19:09.40
Brady Large Akron SVSM -8.30 19:09.40 19:17.70
Preston Caroll Badger -3:11.90 19:10.20 22:22.10
Alexa Jankowsky Shaker Hts. -3:24.10 19:11.30 22:35.40
Caleb Toth Mineral Ridge -26.00 19:12.10 19:38.10
Mike Nozak Trinity -17.40 19:12.60 19:30.00
Victor Serano Harvey -2:25.60 19:15.40 21:41.00
Nathan Hale Gar. Garfield -1:42.10 19:17.70 20:59.80
Izzy Greene Gilmour Academy -1:06.40 19:20.50 20:26.90
Paul Burger Gilmour Academy -1:10.50 19:25.90 20:36.40
Clayton Tomasek Gilmour Academy -1:39.80 19:27.50 21:07.30
James Laplante Gilmour Academy +0.40 19:30.60 19:30.20
Ally Jamison McDonald -1:52.80 19:30.50 21:23.30
Matthew Christopher Chardon NDCL -2:13.50 19:31.70 21:45.20
Josh Mansfield Kirtland -1:16.70 19:32.40 20:49.10
Kacee Soehnlen St. Thomas Aquinas -1:20.70 19:35.60 20:56.30
Anthony Golan Lakeside -58.30 19:37.30 20:35.60
Travis Gibson Gar. Garfield -1:07.60 19:38.10 20:45.70
Mollie Pierson South Range -27.20 19:38.70 20:05.90
Conner Handley Akron SVSM -56.70 19:39.20 20:35.90
Mia Brady Akron SVSM +19.10 19:59.50 19:40.40
Sam Stimson Jefferson Area +22.90 20:04.90 19:42.00
Elaina Mendiola Akron SVSM -2:48.30 19:42.50 22:30.80
Alex Cunningham East Palestine -1:20.70 19:44.20 21:04.90
Xena Maali South Range -27.20 19:44.40 20:11.60
Kylie Scott Berkshire -50.20 19:44.50 20:34.70
Greg Owendoff Chardon NDCL +25.70 20:10.90 19:45.20
Sarah Holzman CVCA -12.20 19:46.30 19:58.50
Matt Benda Chardon NDCL -1:55.80 19:49.50 21:45.30
Austin Gruskiewicz Pymatuning Valley -3:30.20 19:50.50 23:20.70
Thomas Carlyn Ak. Springfield -2:15.50 19:51.30 22:06.80
Nathan Forney Waterloo -33.80 19:54.80 20:28.60
Brian Reynolds Ak. Springfield -1:09.30 19:58.50 21:07.80
Hannah Soehnlen St. Thomas Aquinas -1:51.40 19:59.60 21:51.00
Harrison Rhinehart Lordstown -20.60 20:00.00 20:20.60
Leah Lisle Akron SVSM -50.10 20:01.90 20:52.00
Megan Casselberry Padua Franciscan -17.30 20:02.30 20:19.60
Jack Squire Berkshire -1:45.40 20:02.80 21:48.20
Domenique Hall Girard -1:07.00 20:02.90 21:09.90
Michealina Terranova Jackson-Milton -1:16.60 20:03.90 21:20.50
Maria White Akron SVSM -18.00 20:04.00 20:22.00
Saydi Lappe Pymatuning Valley -1:00.20 20:06.80 21:07.00
Austin Ward Mineral Ridge -17.10 20:08.30 20:25.40
Zach Young United -1:17.50 20:09.90 21:27.40
Hannah Karayan CVCA -1:00.50 20:10.80 21:11.30
Abbie Volpone Lakeside -1:36.60 20:11.00 21:47.60
Melina Edic Crestwood -41.00 20:14.70 20:55.70
Rachel Perry McDonald -32.20 20:17.10 20:49.30
Emily Fromel South Range -2:42.80 20:17.20 23:00.00
Tyler Dunbar Pymatuning Valley -59.90 20:18.00 21:17.90
Ashlynn Uzl Padua Franciscan -1:37.70 20:22.90 22:00.60
Ally Nordstrom Shaker Hts. -2:35.60 20:23.00 22:58.60
Brenna Rupe McDonald -5.50 20:25.00 20:30.50
Abby Pratt McDonald -2:37.50 20:28.10 23:05.60
Regina Neugebauer Akron SVSM +16.70 20:45.70 20:29.00
Ryan Crump Mineral Ridge -42.50 20:29.20 21:11.70
Kristen Seballos Padua Franciscan -32.40 20:29.50 21:01.90
Charlotte Crouch Maplewood -40.90 20:31.40 21:12.30
Matt Wilson Ak. Springfield -28.50 20:31.40 20:59.90
Halle Sarkisian Chardon NDCL -1:21.50 20:35.00 21:56.50
Billy Smith Badger -2:40.10 20:36.00 23:16.10
Andy Picard Jefferson Area -1:13.40 20:36.20 21:49.60
Rachel Lyda CVCA -51.10 20:38.50 21:29.60
Bree Zedar Gilmour Academy -36.10 20:39.70 21:15.80
Jenna Scott Brunswick -26.80 20:39.90 21:06.70
Madelyn Kimpel South Range -1:31.70 20:45.50 22:17.20
Mariah Coulter Gar. Garfield +16.80 21:05.70 20:48.90
Steven Nguyen CVCA -1:45.50 20:52.50 22:38.00
Vanessa Perry McDonald -1:11.60 20:54.10 22:05.70
Chris Buzzard Jefferson Area -1:40.10 20:54.20 22:34.30
Jamie Zickes Padua Franciscan -1:08.30 20:54.70 22:03.00
Griffin Redeker Southeast -41.00 20:54.80 21:35.80
Claire Hoffman McDonald -1:27.10 20:57.30 22:24.40
Mark Stein Ursuline -26.80 21:06.40 21:33.20
Billy Criblez Gar. Garfield -4:34.80 21:10.30 25:45.10
Bella Hagey Akron SVSM -1:21.00 21:14.40 22:35.40
Cassidi Bookless River View -55.00 21:17.20 22:12.20
Nicole Wright CVCA +36.70 21:54.80 21:18.10
Pauline Povitsky Solon -1:10.50 21:18.90 22:29.40
Jeff Bauhart Akron SVSM -1:16.80 21:19.70 22:36.50
Emma Hunkus Badger -55.50 21:20.20 22:15.70
Johannah Stefanek Gar. Garfield -1:57.30 21:22.50 23:19.80
Tatum Flesch Mineral Ridge -1:04.70 21:22.80 22:27.50
Erica Scott Field -2:09.30 21:24.50 23:33.80
Colton Ross Ak. Springfield +3:24.80 24:52.70 21:27.90
Becca Kowalski CVCA -42.30 21:28.00 22:10.30
Yasmeen Elnobani McDonald +53.30 22:21.80 21:28.50
Claire Cary Beaumont -1:04.70 21:29.80 22:34.50
Bella Wagner Crestwood -48.60 21:31.60 22:20.20
Mackenzie Clinger Chardon NDCL -47.40 21:32.50 22:19.90
Emily Hansen Solon +7.40 21:43.00 21:35.60
Lj Durfee CVCA +1:14.10 22:50.70 21:36.60
Jennifer Mcclune Canfield -5.20 21:38.30 21:43.50
Breanna Laverie Austintown-Fitch -1:02.30 21:38.70 22:41.00
Brynn Hofmeister United +11.90 21:56.00 21:44.10
Jared Llyod Akron SVSM +5.90 21:54.50 21:48.60
Natalie Vinci St. Thomas Aquinas -1:41.60 21:48.60 23:30.20
Kylie Vestal Austintown-Fitch +4.60 21:54.10 21:49.50
Raquel Markulin Canfield +1:19.50 23:09.60 21:50.10
Hannah Hall East Palestine +1:54.10 23:47.10 21:53.00
John Paisley CVCA -5:51.20 21:53.20 27:44.40
Jackie Clinger Chardon NDCL -1:54.40 21:55.40 23:49.80
Thomas Dollard Trinity -6.70 22:01.70 22:08.40
Rachel Rosteck Canfield -1:41.40 22:05.80 23:47.20
Catherine Dolohanty Gilmour Academy +2:25.40 24:32.30 22:06.90
Brandy Watkins Maplewood -2:58.90 22:07.50 25:06.40
Dianna Yeager Austintown-Fitch -2.10 22:09.80 22:11.90
Kristen Manyo Lakeside -1:26.00 22:10.00 23:36.00
Jackie Kenreich Girard -2:26.90 22:10.10 24:37.00
Sarah Spalding South Range +28.50 22:39.30 22:10.80
Christine Walsh Kirtland -1:38.70 22:11.50 23:50.20
Sarah Mcgreal Beaumont -3.20 22:11.80 22:15.00
Lauren Walker Akron SVSM -36.20 22:16.30 22:52.50
Sara Collins CVCA -1:46.10 22:18.50 24:04.60
Caitlin Wagner Austintown-Fitch -34.20 22:20.70 22:54.90
Isabelle Moyer Canfield -5.40 22:21.00 22:26.40
Hannah Jones McDonald +46.10 23:07.30 22:21.20
Holly Yeater Ak. Springfield +1:26.10 23:55.20 22:29.10
Eden Amador Ak. Springfield -1:29.30 22:30.70 24:00.00
Cayla Mercurio Beaumont -4.90 22:31.40 22:36.30
Nick Grimm East Palestine -4:00.30 22:32.50 26:32.80
Mason Martuccio Girard -1:17.50 22:33.40 23:50.90
Cassidy Horrigan Akron SVSM -2:54.60 22:35.40 25:30.00
Malley Stanovsek Chardon NDCL +2:20.60 24:56.70 22:36.10
Craig Dugan Ak. Springfield +7.00 22:43.80 22:36.80
Kayla Kuntzman Field -2:19.30 22:37.60 24:56.90
Victori Buskirk Badger -55.60 22:43.80 23:39.40
Riley Schultz Berkshire -24.50 22:45.60 23:10.10
Francesca Bowman Gar. Garfield -1:41.50 22:46.00 24:27.50
Kaitlyn Pennington Southeast -1:15.40 22:47.00 24:02.40
Katya Ferguson CVCA -15.30 22:47.70 23:03.00
Emma Pusateri St. Thomas Aquinas -38.80 22:53.30 23:32.10
Samantha Sperry Warren G Harding +23.10 23:17.30 22:54.20
Kaitlyn Myk-kish Chalker -2:18.80 22:56.80 25:15.60
Katie O'brien Austintown-Fitch +31.60 23:32.50 23:00.90
Jacob Cline Jackson-Milton -2:01.10 23:03.50 25:04.60
Sarah Eick River View +18.30 23:22.30 23:04.00
Hannah James Mineral Ridge -13.00 23:04.20 23:17.20
Michaela Barry Akron SVSM +42.80 23:48.00 23:05.20
Alex Oliverio Akron SVSM +1:06.60 24:12.60 23:06.00
Sienna Drillien CVCA -7.30 23:08.50 23:15.80
Alexis Pacholke Jefferson Area -1:57.90 23:10.70 25:08.60
Katelyn Bevilacqua Badger -55.20 23:11.60 24:06.80
Haley Drennen Girard -1:42.00 23:18.50 25:00.50
Allie Sakacs South Range -4:25.00 23:20.00 27:45.00
Jennette Timko McDonald +1:37.70 24:58.70 23:21.00
Julia Semple Girard +2:01.80 25:23.90 23:22.10
Lana Wallace Akron SVSM +2:57.20 26:19.90 23:22.70
Michelle Macinga South Range -24.70 23:23.20 23:47.90
Mckenzie Pile CVCA -1:17.50 23:24.10 24:41.60
Pamela Beedle McDonald +1:20.80 24:45.80 23:25.00
Maddy Hillard Gilmour Academy -13.60 23:26.60 23:40.20
Leslie Kolb CVCA +1:25.60 24:57.70 23:32.10
Grace Michael Southeast -12.40 23:34.30 23:46.70
Colin Edgley Akron SVSM -1:41.20 23:34.90 25:16.10
Rebeka Stanhope Badger +20.70 23:59.60 23:38.90
Daci Statler Lordstown -1:00.20 23:39.40 24:39.60
McKenna Ludrosky Padua Franciscan -17.80 23:42.30 24:00.10
Jake Knowlton Girard +25.70 24:10.50 23:44.80
Theresa Paroff Gar. Garfield +42.80 24:27.80 23:45.00
Brooke Testa Mineral Ridge -33.80 23:45.00 24:18.80
Ellie Ragan Mineral Ridge -26.80 23:45.20 24:12.00
Riley Jenkins Field -3:45.70 23:45.60 27:31.30
Alexis Zahuranec Chardon NDCL +34.70 24:20.80 23:46.10
Elijah Whitman Trinity -5.80 23:48.80 23:54.60
Hailee Olson Field -0.10 23:50.70 23:50.80
Katie Neugebauer Akron SVSM -2:35.20 23:52.00 26:27.20
Christie Kaminchak Padua Franciscan -1:07.90 23:57.40 25:05.30
Colleen Brennan Padua Franciscan -1:01.00 23:58.00 24:59.00
Cassidy Phillips Ak. Springfield +10.00 24:09.10 23:59.10
Nate Adams East Palestine -11:09.70 24:00.70 35:10.40
Megan Cymanski Crestwood -27.30 24:06.80 24:34.10
Kayana Martin River View -21.40 24:08.40 24:29.80
Maria Razo South Range -16.00 24:10.40 24:26.40
Noah Goldsmith Pymatuning Valley -3:50.70 24:10.90 28:01.60
Zachary Arnett South Range +2:21.80 26:32.80 24:11.00
Kaley Garland Mineral Ridge -1:16.40 24:12.50 25:28.90
Alicia Fedyski McDonald -24.10 24:14.00 24:38.10
Emma Olszak CVCA -1:02.80 24:15.70 25:18.50
Lydia Baird South Range -34.70 24:29.10 25:03.80
Allison Schroeder Padua Franciscan -54.90 24:29.70 25:24.60
Elizabeth Brett Gilmour Academy +2.40 24:32.40 24:30.00
Katie Ensminger Chalker -4:01.50 24:36.60 28:38.10
Manny Salem CVCA -1:05.10 24:37.80 25:42.90
Anne Gulfo South Range +14.60 24:55.80 24:41.20
Jessica Beere Lordstown -1:17.60 24:44.30 26:01.90
Ali Patterson CVCA -1:37.80 24:49.40 26:27.20
Taylor Ziobert Badger -1:21.80 24:51.00 26:12.80
Sydney Devinney Ak. Springfield -1:12.80 25:05.40 26:18.20
Jayla Lindsey Warren G Harding -2:10.20 25:08.90 27:19.10
Grace Wright Newbury -2:26.30 25:10.10 27:36.40
Dominique Petrosky Chalker -3:27.30 25:11.00 28:38.30
Heather Kirk Jackson-Milton -13.00 25:12.20 25:25.20
Adrianna Delucia South Range -2:35.30 25:15.80 27:51.10
Grace Parker CVCA -1:03.30 25:16.30 26:19.60
James Salmen United -1:45.60 25:25.70 27:11.30
Gracie White South Range +1:45.40 27:11.30 25:25.90
Kirsten Adams South Range -27.60 25:52.20 26:19.80
Alex Musser Ursuline +2:32.20 28:27.70 25:55.50
Hannah Trent Gar. Garfield -38.80 26:01.00 26:39.80
Alexa Brace Streetsboro -19.50 26:03.10 26:22.60
Tiffany Brown Girard -53.60 26:03.70 26:57.30
Caroline Popa St. Thomas Aquinas -3:37.50 26:05.20 29:42.70
Josh Goldsmith Pymatuning Valley -2:52.70 26:08.80 29:01.50
Kennedy Horrigan Akron SVSM -49.70 26:13.10 27:02.80
Maggie Fovargue Kirtland +49.70 27:05.00 26:15.30
Darcie Bush CVCA -1:50.20 26:20.60 28:10.80
Luke Salmen United -1:46.00 26:28.30 28:14.30
Hannah Standley South Range -9.60 26:44.90 26:54.50
Alisa Mancini Girard +22.80 27:22.40 26:59.60
Tyler Mcdowell Badger +0.50 27:10.00 27:09.50
Bridget Stark Kirtland +56.90 29:08.50 28:11.60
Alexis Miller Streetsboro +3:21.70 32:45.40 29:23.70
Maddie Sanoba Trinity +1:49.90 31:28.20 29:38.30
Alexis Meaney Jefferson Area -42.00 29:38.60 30:20.60
Allison Curry Akron SVSM -46.20 30:08.80 30:55.00
Abbie Shepley Girard +14.80 31:08.00 30:53.20